Location: West Cummington
(42.4920°N, 72.9680°W)
Time: 13:32:17
(UTC-05:00)

ATLAS 2AS CENTAUR R/B - Visible Passes

Search period start: 22 December 2014 00:00
Search period end: 01 January 2015 00:00
Orbit: 915 x 1297 km, 63.7° (Epoch: 16 December)

Date Brightness Start Highest point End Pass type
(mag) Time Alt. Az. Time Alt. Az. Time Alt. Az.
22 Dec 5.0 18:01:49 10° NW 18:08:31 30° WSW 18:15:01 10° SSW visible
23 Dec 5.9 06:05:52 10° SE 06:09:55 16° ESE 06:14:08 10° ENE visible
23 Dec 4.3 17:16:31 10° NW 17:24:07 46° WSW 17:31:25 10° S visible
24 Dec 6.1 18:25:38 10° WNW 18:29:07 14° W 18:32:34 10° SW visible
25 Dec 4.7 06:24:16 10° S 06:30:32 35° ESE 06:37:19 10° NE visible
25 Dec 5.6 17:39:03 10° WNW 17:44:57 23° WSW 17:50:40 10° SSW visible
26 Dec 5.4 05:41:05 10° SSE 05:46:15 22° ESE 05:51:44 10° ENE visible
26 Dec 4.9 16:53:30 10° NW 17:00:37 36° WSW 17:07:29 10° S visible
27 Dec 5.9 04:59:18 10° SE 05:02:07 13° E 05:05:01 10° ENE visible
27 Dec 3.4 06:44:30 10° SSW 06:51:34 70° ESE 06:59:20 10° NE visible
28 Dec 4.1 06:00:21 10° S 06:07:02 46° ESE 06:14:18 10° NE visible
28 Dec 5.9 17:16:37 10° WNW 17:21:19 17° WSW 17:25:54 10° SW visible
29 Dec 4.8 05:16:44 10° SSE 05:22:39 29° ESE 05:29:00 10° NE visible
30 Dec 5.4 04:33:57 10° SE 04:38:26 18° ESE 04:43:07 10° ENE visible
30 Dec 3.0 06:21:03 10° SSW 06:28:13 87° ESE 06:36:06 10° NE visible
31 Dec 3.5 05:36:37 10° SSW 05:43:34 59° ESE 05:51:11 10° NE visible
31 Dec 6.2 16:54:59 10° W 16:57:38 12° W 17:00:15 10° WSW visible
